Campo, CA

3:10 PM PDT on May 22, 2018 (GMT -0700)
Campo

Weather History for KCZZ - August, 2013

Change the Weather History Date:

Wednesday, August 14, 2013

  Actual Average Record
Temperature  
Mean Temperature 76 °F 74 °F  
Max Temperature 98 °F 95 °F 106 °F (1962)
Min Temperature 54 °F 53 °F 36 °F (1954)
Degree Days  
Heating Degree Days 0 0  
Month to date heating degree days 2 0  
Since 1 June heating degree days 30 63  
Since 1 July heating degree days 2 7  
Cooling Degree Days 11 9  
Month to date cooling degree days 47 126  
Year to date cooling degree days 494 498  
Since 1 June cooling degree days 467 468  
Growing Degree Days 27 (Base 50)    
Moisture  
Dew Point 41 °F    
Average Humidity 35    
Maximum Humidity 57    
Minimum Humidity 13    
Precipitation  
Precipitation 0.00 in 0.03 in 0.39 in (1983)
Month to date precipitation 0.00 0.33  
Year to date precipitation 5.02 10.80  
Since 1 July precipitation 0.24  
Snow  
Snow 0.00 in - - ()
Month to date snowfall 0.0  
Year to date snowfall 0.0  
Snow Depth 0.00 in    
Sea Level Pressure  
Sea Level Pressure 29.83 in    
Wind  
Wind Speed 8 mph (NE)    
Max Wind Speed 18 mph    
Max Gust Speed 22 mph    
T = Trace of Precipitation, MM = Missing Value Source: NWS Daily Summary

Daily Weather History Graph

Daily Weather History Graph

Search for Another Location

Airport or City:

Astronomy

Aug. 14, 2013 Rise Set
Actual Time 6:09 AM PDT 7:31 PM PDT
Civil Twilight 5:43 AM PDT 7:57 PM PDT
Nautical Twilight 5:11 AM PDT 8:28 PM PDT
Astronomical Twilight 4:39 AM PDT 9:00 PM PDT
Moon 1:44 PM PDT (8/14) No Moon Set
Length of Visible Light 14h 14m
Length of Day
13h 22m
First Quarter, 54% of the Moon is Illuminated
Aug 14
First Quarter
Aug 20
Full
Aug 28
Last Quarter
Sep 5
New
Sep 12
First Quarter

Hourly Weather History & Observations

Time (PDT) Temp. Dew Point Humidity Pressure Visibility Wind Dir Wind Speed Gust Speed Precip Events Conditions
12:52 AM 62.1 °F 44.1 °F 52% 29.85 in - NE 4.6 mph - N/A   Unknown
1:52 AM 61.0 °F 43.0 °F 52% 29.84 in - NE 4.6 mph - N/A   Unknown
2:52 AM 57.9 °F 42.1 °F 56% 29.84 in - NE 8.1 mph - N/A   Unknown
3:52 AM 59.0 °F 42.1 °F 53% 29.83 in - ENE 6.9 mph - N/A   Unknown
4:52 AM 59.0 °F 41.0 °F 51% 29.83 in - NE 5.8 mph - N/A   Unknown
5:52 AM 57.9 °F 39.9 °F 51% 29.85 in - NE 4.6 mph - N/A   Unknown
6:52 AM 57.0 °F 39.9 °F 53% 29.87 in - NE 5.8 mph - N/A   Unknown
7:52 AM 73.0 °F 43.0 °F 34% 29.85 in - Calm Calm - N/A   Unknown
8:52 AM 87.1 °F 45.0 °F 23% 29.83 in - Calm Calm - N/A   Unknown
9:52 AM 93.0 °F 41.0 °F 16% 29.83 in - ENE 12.7 mph 19.6 mph N/A   Unknown
10:52 AM 96.1 °F 37.9 °F 13% 29.82 in - NNE 4.6 mph 17.3 mph N/A   Unknown
11:52 AM 96.1 °F 37.9 °F 13% 29.82 in - Variable 4.6 mph - N/A   Unknown
12:52 PM 97.0 °F 41.0 °F 14% 29.81 in - SW 13.8 mph - N/A   Unknown
1:52 PM 96.1 °F 39.9 °F 14% 29.81 in - SW 15.0 mph 20.7 mph N/A   Unknown
2:52 PM 96.1 °F 37.9 °F 13% 29.80 in - SW 13.8 mph 18.4 mph N/A   Unknown
3:52 PM 95.0 °F 37.0 °F 13% 29.79 in - SW 12.7 mph 20.7 mph N/A   Unknown
4:52 PM 93.9 °F 37.0 °F 14% 29.79 in - SW 12.7 mph - N/A   Unknown
5:52 PM 89.1 °F 33.1 °F 14% 29.80 in - SW 13.8 mph - N/A   Unknown
6:52 PM 84.9 °F 46.9 °F 27% 29.82 in - SSW 6.9 mph - N/A   Unknown
7:52 PM 80.1 °F 51.1 °F 36% 29.82 in - South 3.5 mph - N/A   Unknown
8:52 PM 73.0 °F 46.0 °F 38% 29.83 in - NNE 4.6 mph - N/A   Unknown
9:52 PM 72.0 °F 41.0 °F 33% 29.84 in - NE 4.6 mph - N/A   Unknown
10:52 PM 68.0 °F 37.9 °F 33% 29.85 in - ENE 5.8 mph - N/A   Unknown
11:52 PM 66.0 °F 39.0 °F 37% 29.84 in - NE 5.8 mph - N/A   Unknown